Hourly Data Report for September 09, 2017

All times are specified in Local Standard Time (LST). Add 1 hour to adjust for Daylight Saving Time where and when it is observed.

KAMLOOPS A
BRITISH COLUMBIA

50°42'09.000" N
120°26'55.000" W
345.30 m
1163781
71887
YKA

Download Data

Hourly Data (September 2017)
Hourly Data Report for September 9, 2017
Temp Definition
°C
Dew Point Temp Definition
°C
Rel Hum Definition
%
Wind Dir Definition
10's deg

Wind Spd Definition
km/h
Visibility Definition
km
Stn Press Definition
kPa
Hmdx Definition


Wind Chill Definition


Weather Definition


TIME
00:00 Legend Double Dagger 17.1 15.1 88 10 21 24.1 96.96     LegendNANA
01:00 Legend Double Dagger 16.7 14.9 89 11 14 24.1 96.93     Mostly Cloudy
02:00 Legend Double Dagger 16.5 14.5 87 10 11 24.1 96.89     LegendNANA
03:00 Legend Double Dagger 17.1 14.2 83 15 4 24.1 96.87     LegendNANA
04:00 Legend Double Dagger 16.7 13.9 84 36 3 24.1 96.86     Cloudy
05:00 Legend Double Dagger 16.8 13.1 79 33 4 24.1 96.87     LegendNANA
06:00 Legend Double Dagger 18.4 12.1 67 36 1 40.2 96.90     LegendNANA
07:00 Legend Double Dagger 18.3 12.0 66 10 9 64.4 96.94     Cloudy
08:00 Legend Double Dagger 20.0 11.2 57 13 15 64.4 96.96     LegendNANA
09:00 Legend Double Dagger 19.6 10.9 57 23 6 64.4 97.01     Rain Showers
10:00 Legend Double Dagger 20.3 10.9 55 36 2 64.4 97.03     Mostly Cloudy
11:00 Legend Double Dagger 22.6 6.4 35 24 18 64.4 97.00     LegendNANA
12:00 Legend Double Dagger 21.8 6.2 36 23 27 64.4 96.99     LegendNANA
13:00 Legend Double Dagger 19.2 8.8 50 22 16 64.4 97.09     Rain Showers
14:00 Legend Double Dagger 19.8 9.4 51 16 9 64.4 97.08     LegendNANA
15:00 Legend Double Dagger 20.0 10.8 55 9 9 64.4 97.06     LegendNANA
16:00 Legend Double Dagger 21.6 8.3 42 7 19 64.4 97.02     Mainly Clear
17:00 Legend Double Dagger 22.0 6.7 37 23 32 64.4 97.06     LegendNANA
18:00 Legend Double Dagger 20.6 6.3 39 21 30 64.4 97.10     LegendNANA
19:00 Legend Double Dagger 19.1 6.2 43 20 22 64.4 97.23     Mainly Clear
20:00 Legend Double Dagger 18.7 5.5 42 21 18 64.4 97.42     LegendNANA
21:00 Legend Double Dagger 17.1 5.7 47 26 6 64.4 97.53     LegendNANA
22:00 Legend Double Dagger 17.3 5.5 45 24 15 64.4 97.61     Mostly Cloudy
23:00 Legend Double Dagger 14.1 5.6 56 36 3 64.4 97.68     LegendNANA

Notes on Data Quality.

Legend

  • E = Estimated
  • M = Missing
  • NA = Not Available
  • ‡ = Partner data that is not subject to review by the National Climate Archives
Date modified: